Air Sicilia Virtual Airways - Route

Air Sicilia Virtual Airways - SIC070L

( FR ) LFMU
Béziers-Vias Airport
BéZIERS/VIAS ( BZR )
plane_to ( ES ) LEGE
Girona Airport
GIRONA ( GRO )
Mediterraneo TOUR VFR - LEG: 10

AIRPORT NEAR NAVIGATION AIDS

Type Name Frequency

METAR / TAF
LFMU 191700Z AUTO 18012KT CAVOK 27/14 Q1014 NOSIG
LFMU 191400Z 1915/2015 17013KT CAVOK BECMG 1919/1921 07008KT TEMPO 2000/2008 BKN008 BECMG 2008/2010 13012KT PROB30 TEMPO 2008/2011 BKN012

RUNWAY INFORMATION

Runway Runway length Runway width Runway elevation Runway displaced threshold Runway heading
10 5971 98 51 450 94.4
28 5971 98 40 0 274.4

AIRPORT FREQUENCIES

Type Name Frequency
APP MONTPELLIE 130.85 MHZ
ATIS BEZIERS AT 127.525 MHZ
TWR BEZIERS TW 120.175 MHZ

AIRPORT NEAR NAVIGATION AIDS

Type Name Frequency
VOR-DME Gerona 114100 KHZ
NDB Gerona 412 KHZ

METAR / TAF
LEGE 191700Z 17012KT 140V210 CAVOK 27/21 Q1015
LEGE 191100Z 1912/2012 20011KT 9999 FEW030 TX32/1912Z TN21/2006Z TEMPO 1922/2008 VRB04KT

RUNWAY INFORMATION

Runway Runway length Runway width Runway elevation Runway displaced threshold Runway heading
02 7874 148 403 0 15.8
20 7874 148 468 0 195.8

AIRPORT FREQUENCIES

Type Name Frequency
APP APP 120.9 MHZ
GND GND 121.7 MHZ
TWR TWR 118.5 MHZ

Flightplan

passando per Alt de St. Illa

Air Sicilia Virtual Airways Fleets

AVAILABLE AIRCRAFTS for route at this time in Béziers-Vias Airport
C172 - Cessna 172 Skyhawk
( US ) Cessna

Aircraft in fleet: 13

125 NM

Distance in nautical miles.

€ 100,00

Ticket price for this flight.

Nr. 10

Leg



12-11-2018
Aerosoft Airport Rio de Janeiro International V2.0 XP

L'Aeroporto Internazionale di Rio de Janeiro-Galeão (IATA: GIG, ICAO: SBGL), costruito nel 1952 nel quartiere di Ilha do Governador ed intitolato al musicista Antônio Carlos Jobim, è il principale aeroporto internazio ....


15-10-2018
Aerosoft A320 Family professional

La gamma di aeromobili A320 è una delle più comuni nei cieli. Questi aerei di linea a doppio-getto a corto e medio raggio si sono dimostrati convenienti, affidabili e prontamente disponibili, rendendoli le opzioni migl ....


10-10-2018
Motore critico ( Critical Engine )

Il motore critico di un velivolo ad ala fissa multi-motore è il motore che, in caso di guasto, influirebbe negativamente sulle prestazioni o sulla capacità di manovra di un aereo. Sui velivoli ad elica, vi è un ....


04-10-2018
Aerosoft Dortmund XP

Scopri il centro della regione della Ruhr su XPlane 11 - lo scenario Dortmund XP è una ricostruzione completa della città di Dortmund per il simulatore di volo targato Laminar. Oltre all'intera area urbana di Dortmu ....


07-08-2018
Aerosoft Professional Flight Planner PFPX

PFPX - Professional Flight Planner X - è un nuovo ed innovativo strumento di pianificazione del volo sviluppato da piloti e dispatcher del mondo reale. È un'aggiunta preziosa e realistica alla tua esperienza di simulaz ....